Regional Weather Roundup
Issued by NWS

Home | Current Version | Previous Version | Graphics & Text | Print | Product List | Glossary On
Versions: 1 2 3 4 5 6 7 8 9 10 11 12 13 14 15 16 17 18 19 20 21 22 23 24 25 26 27 28 29 30 31 32 33 34 35 36 37 38 39 40 41 42 43 44 45 46 47 48 49 50
000
ASUS43 KLOT 221158
RWRIL

ILLINOIS REGIONAL WEATHER ROUNDUP
NATIONAL WEATHER SERVICE CHICAGO/ROMEOVILLE IL
700 AM CDT MON SEP 22 2014

NOTE: "FAIR" INDICATES FEW OR NO CLOUDS BELOW 12,000 FEET WITH NO
SIGNIFICANT WEATHER AND/OR OBSTRUCTIONS TO VISIBILITY.

* THESE STATIONS ARE NOT UNDER NWS QUALITY CONTROL. THEY ALSO MAY NOT
  REPORT WEATHER SUCH AS PRECIPITATION OR FOG.

ILZ001-002-007-009-015-016-024-221300-
NORTHWEST ILLINOIS

CITY           SKY/WX    TMP DP  RH WIND       PRES   REMARKS
MOLINE         CLEAR     42  40  92 CALM      30.28R
6HR MIN TEMP:  41; 6HR MAX TEMP:  54;

$$

ILZ003-004-008-010-011-017-018-221300-
NORTH CENTRAL ILLINOIS

CITY           SKY/WX    TMP DP  RH WIND       PRES   REMARKS
ROCKFORD       NOT AVBL
$$

ILZ005-006-012>014-019>023-221300-
NORTHEAST ILLINOIS

CITY           SKY/WX    TMP DP  RH WIND       PRES   REMARKS
CHICAGO-OHARE  PTCLDY    47  40  76 NW9       30.25R
6HR MIN TEMP:  46; 6HR MAX TEMP:  51;

CHICAGO-MIDWAY PTCLDY    48  43  82 NW9       30.24R
6HR MIN TEMP:  48; 6HR MAX TEMP:  54;

AURORA         CLEAR     39  36  89 NW5       30.27R
6HR MIN TEMP:  39; 6HR MAX TEMP:  44;

WAUKEGAN       CLEAR     42  38  85 NW5       30.25R
6HR MIN TEMP:  42; 6HR MAX TEMP:  47;

DUPAGE AIRPORT CLEAR     41  38  89 N5        30.26R
6HR MIN TEMP:  40; 6HR MAX TEMP:  45;

WHEELING       CLEAR     44  40  85 NW7       30.26R
6HR MIN TEMP:  44; 6HR MAX TEMP:  49;

NORTHERLY ISL    N/A     52  45  77 NW7         N/A
$$

LMZ740>746-221300-
SOUTHERN LAKE MICHIGAN

STATION/POSITION SKY/WX   TEMP    WIND        PRES    VSBY  WAVE
                          AIR SEA DIR/SP/G                  HT/PER
                          (F)     (DEG/KT/KT) (MB)    (MI)  (FT/S)
SOUTHERN BUOY              53 61  340/ 12/ 14 1022.9R         6/ 8
WAUKEGAN HARBOR            46     330/  6/  9   N/A
HARRISON CRIB              52     320/ 13/ 16   N/A
BURNHAM HARBOR             52     330/  7       N/A
CALUMET HARBOR             50     280/  3/  6 1022.1R
MICHIGAN CITY              54     360/ 17/ 20   N/A
MICHIGAN CITY 6N           55 64   20/ 14/ 19   N/A           7/ 7
ST. JOSEPH                 49 65   70/  8/ 12   N/A           5/ 7
$$

ILZ025>027-034>036-040-047-049-050-058-095>099-221300-
WEST-CENTRAL ILLINOIS

CITY           SKY/WX    TMP DP  RH WIND       PRES   REMARKS
$$

ILZ028>032-037-038-041>044-048-051>054-059>061-221300-
CENTRAL ILLINOIS

CITY           SKY/WX    TMP DP  RH WIND       PRES   REMARKS
PEORIA         NOT AVBL
SPRINGFIELD    CLEAR     48  46  93 CALM      30.26R
6HR MIN TEMP:  48; 6HR MAX TEMP:  54;

TAYLORVILLE    NOT AVBL
$$

ILZ033-039-045-046-055>057-062-063-221300-
EAST-CENTRAL ILLINOIS

CITY           SKY/WX    TMP DP  RH WIND       PRES   REMARKS
$$

ILZ079-100>102-221300-
SOUTHWEST ILLINOIS

CITY           SKY/WX    TMP DP  RH WIND       PRES   REMARKS
ALTON          CLEAR     48  46  93 CALM      30.26R
$$

ILZ064>066-069>071-074>076-080>082-084>086-088>090-092>094-221300-
SOUTH-CENTRAL ILLINOIS

CITY           SKY/WX    TMP DP  RH WIND       PRES   REMARKS
CARBONDALE     CLEAR     49  48  97 NW5       30.24R
6HR MIN TEMP:  49; 6HR MAX TEMP:  56;

MARION         CLEAR     50  50 100 N7        30.24R
$$

ILZ067-068-072-073-078-083-087-091-221300-
SOUTHEAST ILLINOIS

CITY           SKY/WX    TMP DP  RH WIND       PRES   REMARKS
$$

ABBREVIATIONS USED IN REMARKS
   TC - TEMPERATURE IN CELSIUS
  WCI - WIND CHILL INDEX
   HX - HEAT INDEX
  VSB - VISIBILITY
$$



USA.gov is the U.S. government's official web portal to all federal, state and local government web resources and services.